M I D A S
Marine Information and Data Acquisition System
Tripno 1623 of the Zeeleeuw from 2008-12-19 08:01:44 to 2008-12-19 15:37:09
Back to CruiseResearch ActivitiesStationsMapUnderway DataData graphs

EquipmentUnitsComments
TimeDGPSUTC
LatitudeDGPSDM.mWGS84
LongitudeDGPSDM.mWGS84
SpeedMeteo Stationm/sRelative wind speed
DirectionMeteo StationdegRelative wind direction
TemperatureMeteo Stationdeg CelciusAir temperature
PressureMeteo StationPaAtmospheric pressure
HumidityMeteo Station%Relative humidity
Missing or incorrect values are displayed as -999
Metereological data collected by the RV Zeeleeuw from 2008-12-19 07:58:03 to 2008-12-19 15:40:02
                                                                                    Next 1000 lines
Time Latitude Longitude Speed Direction Temperature Pressure Humidity
2008-12-19 07:58:13 51°13.661 2°55.958 -999 -999 -999 -999 -999
2008-12-19 07:58:18 51°13.661 2°55.958 -999 -999 -999 -999 -999
2008-12-19 07:58:23 51°13.661 2°55.958 -999 -999 -999 -999 -999
2008-12-19 07:58:28 51°13.66 2°55.957 -999 -999 -999 -999 -999
2008-12-19 07:58:33 51°13.66 2°55.956 -999 -999 -999 -999 -999
2008-12-19 07:58:38 51°13.66 2°55.955 -999 -999 -999 -999 -999
2008-12-19 07:58:43 51°13.66 2°55.953 -999 -999 -999 -999 -999
2008-12-19 07:58:48 51°13.661 2°55.951 -999 -999 -999 -999 -999
2008-12-19 07:58:53 51°13.661 2°55.948 -999 -999 -999 -999 -999
2008-12-19 07:58:58 51°13.662 2°55.945 -999 -999 -999 -999 -999
2008-12-19 07:59:03 51°13.663 2°55.941 -999 -999 -999 -999 -999
2008-12-19 07:59:08 51°13.663 2°55.937 -999 -999 -999 -999 -999
2008-12-19 07:59:13 51°13.664 2°55.932 -999 -999 -999 -999 -999
2008-12-19 07:59:18 51°13.665 2°55.926 -999 -999 -999 -999 -999
2008-12-19 07:59:23 51°13.666 2°55.92 -999 -999 -999 -999 -999
2008-12-19 07:59:28 51°13.668 2°55.914 -999 -999 -999 -999 -999
2008-12-19 07:59:33 51°13.669 2°55.906 -999 -999 -999 -999 -999
2008-12-19 07:59:38 51°13.671 2°55.899 -999 -999 -999 -999 -999
2008-12-19 07:59:44 51°13.673 2°55.889 -999 -999 -999 -999 -999
2008-12-19 07:59:49 51°13.674 2°55.88 -999 -999 -999 -999 -999
2008-12-19 07:59:53 51°13.676 2°55.874 -999 -999 -999 -999 -999
2008-12-19 07:59:58 51°13.678 2°55.865 -999 -999 -999 -999 -999
2008-12-19 08:00:04 51°13.68 2°55.854 -999 -999 -999 -999 -999
2008-12-19 08:00:09 51°13.683 2°55.845 -999 -999 -999 -999 -999
2008-12-19 08:00:13 51°13.684 2°55.838 -999 17 -999 -999 -999
2008-12-19 08:00:18 51°13.686 2°55.829 8.2 4 -999 -999 -999
2008-12-19 08:00:23 51°13.689 2°55.82 11.5 31 -999 -999 -999
2008-12-19 08:00:29 51°13.692 2°55.809 8.6 15 -999 -999 -999
2008-12-19 08:00:33 51°13.694 2°55.801 8.4 55 -999 -999 -999
2008-12-19 08:00:38 51°13.696 2°55.792 8.6 21 7.4 -999 62
2008-12-19 08:00:43 51°13.699 2°55.783 8.5 53 7.4 -999 62
2008-12-19 08:00:48 51°13.701 2°55.774 7 19 7.4 -999 68
2008-12-19 08:00:53 51°13.703 2°55.766 6.8 50 7.4 -999 68
2008-12-19 08:00:58 51°13.705 2°55.76 5.1 25 7.4 102340 69
2008-12-19 08:01:03 51°13.706 2°55.755 10.6 55 7.4 102340 69
2008-12-19 08:01:08 51°13.707 2°55.752 8.3 25 7.4 102330 70
2008-12-19 08:01:13 51°13.707 2°55.751 5.9 309 7.4 102330 70
2008-12-19 08:01:18 51°13.708 2°55.752 7 269 7.4 102340 69
2008-12-19 08:01:22 51°13.708 2°55.754 6 305 7.4 102340 69
2008-12-19 08:01:27 51°13.708 2°55.757 5.9 263 7.5 102330 69
2008-12-19 08:01:33 51°13.709 2°55.761 7.6 310 7.5 102330 69
2008-12-19 08:01:38 51°13.709 2°55.763 5.3 259 7.4 102340 70
2008-12-19 08:01:43 51°13.71 2°55.765 6.3 304 7.4 102340 70
2008-12-19 08:01:48 51°13.71 2°55.765 8.6 261 7.4 102330 69
2008-12-19 08:01:53 51°13.709 2°55.764 6.4 302 7.4 102330 69
2008-12-19 08:01:57 51°13.708 2°55.763 6.2 265 7.4 102340 71
2008-12-19 08:02:02 51°13.707 2°55.761 6.2 307 7.4 102340 71
2008-12-19 08:02:07 51°13.706 2°55.758 6.2 262 7.4 102340 70
2008-12-19 08:02:12 51°13.704 2°55.754 9.2 308 7.4 102340 70
2008-12-19 08:02:17 51°13.702 2°55.75 6.7 260 7.4 102330 71
2008-12-19 08:02:23 51°13.7 2°55.746 5.9 304 7.4 102330 71
2008-12-19 08:02:28 51°13.698 2°55.743 6 260 7.4 102340 71
2008-12-19 08:02:33 51°13.697 2°55.741 4.2 304 7.4 102340 71
2008-12-19 08:02:38 51°13.697 2°55.741 7.5 257 7.4 102340 71
2008-12-19 08:02:43 51°13.697 2°55.742 5.5 302 7.4 102340 71
2008-12-19 08:02:48 51°13.699 2°55.745 6.4 24 7.4 102340 71
2008-12-19 08:02:53 51°13.701 2°55.748 8.8 308 7.4 102340 71
2008-12-19 08:02:58 51°13.704 2°55.751 6.3 27 7.4 102340 71
2008-12-19 08:03:03 51°13.707 2°55.754 7 309 7.4 102340 71
2008-12-19 08:03:08 51°13.709 2°55.755 6.5 27 7.4 102330 72
2008-12-19 08:03:13 51°13.711 2°55.757 6.1 303 7.4 102330 72
2008-12-19 08:03:18 51°13.711 2°55.758 6.7 19 7.4 102330 71
2008-12-19 08:03:22 51°13.711 2°55.759 7.8 304 7.4 102330 71
2008-12-19 08:03:27 51°13.71 2°55.759 5.3 22 7.4 102330 72
2008-12-19 08:03:32 51°13.709 2°55.76 6.3 303 7.4 102330 72
2008-12-19 08:03:37 51°13.707 2°55.76 6.7 19 7.4 102330 72
2008-12-19 08:03:42 51°13.704 2°55.76 7.2 304 7.4 102330 72
2008-12-19 08:03:47 51°13.701 2°55.759 5.2 23 7.4 102330 72
2008-12-19 08:03:53 51°13.698 2°55.759 6.6 304 7.4 102330 72
2008-12-19 08:03:58 51°13.696 2°55.758 6.6 248 7.4 102330 72
2008-12-19 08:04:03 51°13.696 2°55.758 6.5 306 7.4 102330 72
2008-12-19 08:04:08 51°13.696 2°55.759 5.2 27 7.4 102340 72
2008-12-19 08:04:13 51°13.698 2°55.759 5.4 306 7.4 102340 72
2008-12-19 08:04:18 51°13.7 2°55.759 8.2 24 7.4 102340 72
2008-12-19 08:04:24 51°13.704 2°55.758 7.3 308 7.4 102340 72
2008-12-19 08:04:28 51°13.707 2°55.757 7.8 324 7.4 102330 72
2008-12-19 08:04:33 51°13.712 2°55.753 7.2 331 7.4 102330 72
2008-12-19 08:04:38 51°13.718 2°55.749 10.3 329 7.4 102330 73
2008-12-19 08:04:43 51°13.723 2°55.743 8.4 304 7.4 102330 73
2008-12-19 08:04:48 51°13.73 2°55.737 7.5 325 7.4 102330 73
2008-12-19 08:04:53 51°13.737 2°55.73 10.6 326 7.4 102330 73
2008-12-19 08:04:57 51°13.742 2°55.723 7.5 330 7.4 102330 73
2008-12-19 08:05:02 51°13.75 2°55.715 10.7 330 7.4 102330 73
2008-12-19 08:05:07 51°13.758 2°55.707 7.9 331 7.4 102330 72
2008-12-19 08:05:12 51°13.767 2°55.699 9 331 7.4 102330 72
2008-12-19 08:05:17 51°13.776 2°55.69 10.4 332 7.4 102330 72
2008-12-19 08:05:21 51°13.783 2°55.683 8.5 332 7.4 102330 72
2008-12-19 08:05:26 51°13.792 2°55.675 7 330 7.4 102330 73
2008-12-19 08:05:31 51°13.8 2°55.667 10.1 329 7.4 102330 73
2008-12-19 08:05:36 51°13.809 2°55.659 9.5 325 7.4 102330 73
2008-12-19 08:05:40 51°13.816 2°55.652 8.4 306 7.4 102330 73
2008-12-19 08:05:45 51°13.825 2°55.645 9.4 335 7.4 102330 73
2008-12-19 08:05:50 51°13.834 2°55.637 11.8 334 7.4 102330 73
2008-12-19 08:05:54 51°13.841 2°55.631 13 329 7.4 102330 74
2008-12-19 08:06:00 51°13.852 2°55.622 10 326 7.4 102330 74
2008-12-19 08:06:05 51°13.861 2°55.614 13.6 325 7.4 102330 73
2008-12-19 08:06:09 51°13.868 2°55.608 10.1 329 7.4 102330 73
2008-12-19 08:06:14 51°13.878 2°55.601 13 325 7.4 102330 74
2008-12-19 08:06:20 51°13.889 2°55.592 13.3 304 7.4 102330 74
2008-12-19 08:06:25 51°13.898 2°55.584 12.3 320 7.4 102330 73
2008-12-19 08:06:29 51°13.905 2°55.578 13.8 304 7.4 102330 73
2008-12-19 08:06:34 51°13.915 2°55.571 13.1 319 7.4 102330 74
2008-12-19 08:06:40 51°13.926 2°55.562 9.8 305 7.4 102330 74
2008-12-19 08:06:45 51°13.935 2°55.555 13.6 316 7.4 102330 74
2008-12-19 08:06:49 51°13.943 2°55.549 10.6 302 7.4 102330 74
2008-12-19 08:06:54 51°13.952 2°55.542 8.6 325 7.5 102330 74
2008-12-19 08:07:00 51°13.964 2°55.533 7.4 329 7.5 102330 74
2008-12-19 08:07:05 51°13.974 2°55.525 9.5 329 7.4 102330 74
2008-12-19 08:07:09 51°13.981 2°55.519 9.1 307 7.4 102330 74
2008-12-19 08:07:14 51°13.992 2°55.511 10 324 7.4 102330 74
2008-12-19 08:07:20 51°14.004 2°55.501 10.5 304 7.4 102330 74
2008-12-19 08:07:25 51°14.014 2°55.493 9.9 324 7.4 102330 74
2008-12-19 08:07:29 51°14.022 2°55.486 9.2 323 7.4 102330 74
2008-12-19 08:07:34 51°14.033 2°55.477 11.1 324 7.4 102340 75
2008-12-19 08:07:40 51°14.045 2°55.466 13.7 305 7.4 102340 75
2008-12-19 08:07:45 51°14.056 2°55.458 12.4 322 7.4 102340 75
2008-12-19 08:07:49 51°14.064 2°55.451 11.7 303 7.4 102340 75
2008-12-19 08:07:54 51°14.075 2°55.442 11.9 321 7.3 102320 76
2008-12-19 08:08:00 51°14.088 2°55.431 12.1 304 7.3 102320 76
2008-12-19 08:08:05 51°14.099 2°55.422 10.6 321 7.3 102330 76
2008-12-19 08:08:09 51°14.107 2°55.415 13.4 301 7.3 102330 76
2008-12-19 08:08:14 51°14.118 2°55.406 14 319 7.3 102330 76
2008-12-19 08:08:20 51°14.131 2°55.395 11.5 306 7.3 102330 76
2008-12-19 08:08:25 51°14.142 2°55.386 13.2 321 7.3 102330 76
2008-12-19 08:08:29 51°14.15 2°55.378 13.9 305 7.3 102330 76
2008-12-19 08:08:34 51°14.161 2°55.369 14 320 7.3 102330 76
2008-12-19 08:08:40 51°14.174 2°55.357 14.6 303 7.3 102330 76
2008-12-19 08:08:45 51°14.184 2°55.347 14.1 321 7.2 102320 76
2008-12-19 08:08:49 51°14.193 2°55.338 10.7 322 7.2 102320 76
2008-12-19 08:08:54 51°14.203 2°55.326 13.4 325 7.2 102330 76
2008-12-19 08:09:00 51°14.214 2°55.312 14.3 327 7.2 102330 76
2008-12-19 08:09:05 51°14.224 2°55.299 12.4 326 7.2 102330 77
2008-12-19 08:09:09 51°14.231 2°55.289 11 329 7.2 102330 77
2008-12-19 08:09:14 51°14.24 2°55.275 13.9 327 7.2 102330 78
2008-12-19 08:09:20 51°14.251 2°55.258 14.2 327 7.2 102330 78
2008-12-19 08:09:25 51°14.259 2°55.243 15.3 328 7.1 102330 78
2008-12-19 08:09:29 51°14.266 2°55.232 12.3 327 7.1 102330 78
2008-12-19 08:09:34 51°14.274 2°55.216 12.1 328 7.1 102330 77
2008-12-19 08:09:40 51°14.284 2°55.198 14.1 325 7.1 102330 77
2008-12-19 08:09:45 51°14.292 2°55.183 14.6 327 7.1 102340 76
2008-12-19 08:09:49 51°14.298 2°55.171 12.3 329 7.1 102340 76
2008-12-19 08:09:54 51°14.306 2°55.155 12.8 328 7.2 102330 77
2008-12-19 08:10:00 51°14.316 2°55.136 12.1 330 7.2 102330 77
2008-12-19 08:10:05 51°14.323 2°55.12 12.4 329 7.1 102340 76
2008-12-19 08:10:10 51°14.331 2°55.103 15 329 7.1 102340 76
2008-12-19 08:10:15 51°14.338 2°55.085 12.3 333 7.1 102340 77
2008-12-19 08:10:20 51°14.346 2°55.068 13.4 329 7.1 102340 77
2008-12-19 08:10:25 51°14.353 2°55.049 13 330 7.1 102340 78
2008-12-19 08:10:30 51°14.36 2°55.031 13.8 332 7.1 102340 78
2008-12-19 08:10:35 51°14.368 2°55.013 14.5 331 7.2 102340 78
2008-12-19 08:10:40 51°14.375 2°54.993 12.4 332 7.2 102340 78
2008-12-19 08:10:45 51°14.382 2°54.974 12.6 329 7.2 102340 77
2008-12-19 08:10:49 51°14.388 2°54.959 15.7 329 7.2 102340 77
2008-12-19 08:10:55 51°14.399 2°54.936 14.9 327 7.2 102340 77
2008-12-19 08:11:00 51°14.409 2°54.918 15.1 325 7.2 102340 77
2008-12-19 08:11:05 51°14.42 2°54.901 16.1 324 7.2 102340 77
2008-12-19 08:11:10 51°14.431 2°54.884 14.8 326 7.2 102340 77
2008-12-19 08:11:14 51°14.44 2°54.871 15.6 324 7.2 102340 77
2008-12-19 08:11:20 51°14.455 2°54.852 16.1 306 7.2 102340 77
2008-12-19 08:11:25 51°14.468 2°54.837 13.7 322 7.2 102330 77
2008-12-19 08:11:30 51°14.482 2°54.823 15.6 305 7.2 102330 77
2008-12-19 08:11:34 51°14.493 2°54.812 15 323 7.2 102330 77
2008-12-19 08:11:40 51°14.509 2°54.795 14.8 306 7.2 102330 77
2008-12-19 08:11:45 51°14.523 2°54.78 13.9 323 7.2 102330 77
2008-12-19 08:11:50 51°14.536 2°54.766 14.9 306 7.2 102330 77
2008-12-19 08:11:55 51°14.55 2°54.752 14.8 323 7.2 102330 78
2008-12-19 08:12:00 51°14.564 2°54.738 13.4 323 7.2 102330 78
2008-12-19 08:12:05 51°14.578 2°54.724 14.3 322 7.2 102330 78
2008-12-19 08:12:10 51°14.593 2°54.711 12.8 307 7.2 102330 78
2008-12-19 08:12:15 51°14.607 2°54.697 13.7 321 7.2 102330 78
2008-12-19 08:12:20 51°14.621 2°54.683 15 323 7.2 102330 78
2008-12-19 08:12:25 51°14.635 2°54.67 15.4 321 7.2 102330 77
2008-12-19 08:12:30 51°14.649 2°54.656 13.8 303 7.2 102330 77
2008-12-19 08:12:35 51°14.663 2°54.644 16.2 322 7.2 102330 77
2008-12-19 08:12:40 51°14.677 2°54.63 12.5 304 7.2 102330 77
2008-12-19 08:12:45 51°14.691 2°54.617 15 320 7.2 102340 78
2008-12-19 08:12:50 51°14.706 2°54.604 13.5 305 7.2 102340 78
2008-12-19 08:12:55 51°14.72 2°54.592 15.3 320 7.2 102340 77
2008-12-19 08:13:00 51°14.735 2°54.58 15.4 307 7.2 102340 77
2008-12-19 08:13:05 51°14.749 2°54.567 13.7 323 7.2 102330 78
2008-12-19 08:13:09 51°14.761 2°54.558 15.5 309 7.2 102330 78
2008-12-19 08:13:15 51°14.778 2°54.543 11.8 320 7.2 102330 77
2008-12-19 08:13:20 51°14.793 2°54.532 13 305 7.2 102330 77
2008-12-19 08:13:25 51°14.808 2°54.52 13.9 320 7.2 102330 77
2008-12-19 08:13:30 51°14.822 2°54.508 12.9 323 7.2 102330 77
2008-12-19 08:13:34 51°14.834 2°54.498 13.1 322 7.2 102330 79
2008-12-19 08:13:40 51°14.852 2°54.483 15.2 322 7.2 102330 79
2008-12-19 08:13:45 51°14.866 2°54.471 12.5 322 7.2 102340 78
2008-12-19 08:13:50 51°14.881 2°54.458 13.5 306 7.2 102340 78
2008-12-19 08:13:54 51°14.893 2°54.449 12.9 322 7.2 102330 79
2008-12-19 08:14:00 51°14.91 2°54.434 13.2 304 7.2 102330 79
2008-12-19 08:14:05 51°14.925 2°54.423 14.8 321 7.2 102330 79
2008-12-19 08:14:10 51°14.94 2°54.411 14.1 323 7.2 102330 79
2008-12-19 08:14:15 51°14.955 2°54.399 12.7 322 7.2 102340 78
2008-12-19 08:14:20 51°14.969 2°54.387 15.6 304 7.2 102340 78
2008-12-19 08:14:25 51°14.984 2°54.374 16.3 322 7.2 102340 79
2008-12-19 08:14:30 51°14.998 2°54.363 12.8 305 7.2 102340 79
2008-12-19 08:14:35 51°15.013 2°54.351 12.4 322 7.2 102330 79
2008-12-19 08:14:40 51°15.028 2°54.339 14.5 304 7.2 102330 79
2008-12-19 08:14:45 51°15.043 2°54.327 14.6 323 7.2 102330 78
2008-12-19 08:14:50 51°15.058 2°54.314 16.2 325 7.2 102330 78
2008-12-19 08:14:55 51°15.072 2°54.303 15.2 324 7.2 102340 79
2008-12-19 08:15:00 51°15.087 2°54.29 13.8 303 7.2 102340 79
2008-12-19 08:15:05 51°15.102 2°54.276 14.9 324 7.2 102340 79
2008-12-19 08:15:10 51°15.116 2°54.263 16.4 304 7.2 102340 79
2008-12-19 08:15:15 51°15.131 2°54.25 13.3 323 7.2 102320 79
2008-12-19 08:15:20 51°15.145 2°54.237 14.5 303 7.2 102320 79
2008-12-19 08:15:25 51°15.16 2°54.224 15.2 323 7.2 102330 78
2008-12-19 08:15:29 51°15.171 2°54.213 15.9 305 7.2 102330 78
2008-12-19 08:15:34 51°15.186 2°54.2 15.6 323 7.2 102330 79
2008-12-19 08:15:40 51°15.203 2°54.184 12.5 302 7.2 102330 79
2008-12-19 08:15:45 51°15.217 2°54.17 16 323 7.2 102330 78
2008-12-19 08:15:50 51°15.231 2°54.157 13 305 7.2 102330 78
2008-12-19 08:15:54 51°15.243 2°54.146 13.4 323 7.2 102340 79
2008-12-19 08:16:00 51°15.26 2°54.13 13.8 306 7.2 102340 79
2008-12-19 08:16:05 51°15.275 2°54.116 12.6 323 7.2 102340 78
2008-12-19 08:16:10 51°15.289 2°54.103 15.3 323 7.2 102340 78
2008-12-19 08:16:14 51°15.3 2°54.092 13.6 325 7.2 102330 78
2008-12-19 08:16:20 51°15.317 2°54.075 14.6 324 7.2 102330 78
2008-12-19 08:16:25 51°15.331 2°54.061 12.2 322 7.2 102340 79
2008-12-19 08:16:30 51°15.345 2°54.048 12.2 324 7.2 102340 79
2008-12-19 08:16:35 51°15.36 2°54.034 15.3 323 7.2 102340 79
2008-12-19 08:16:40 51°15.374 2°54.021 12.3 305 7.2 102340 79
2008-12-19 08:16:45 51°15.388 2°54.007 15.3 323 7.2 102340 78
2008-12-19 08:16:50 51°15.403 2°53.994 15.5 307 7.2 102340 78
2008-12-19 08:16:55 51°15.417 2°53.979 13.3 324 7.2 102330 79
2008-12-19 08:17:00 51°15.431 2°53.966 12.6 324 7.2 102330 79
2008-12-19 08:17:05 51°15.445 2°53.952 13.4 324 7.2 102340 79
2008-12-19 08:17:10 51°15.459 2°53.938 15.8 305 7.2 102340 79
2008-12-19 08:17:15 51°15.472 2°53.924 13.3 324 7.2 102340 80
2008-12-19 08:17:20 51°15.487 2°53.912 15.9 308 7.2 102340 80
2008-12-19 08:17:25 51°15.501 2°53.9 14.9 322 7.2 102340 79
2008-12-19 08:17:29 51°15.513 2°53.89 15.3 305 7.2 102340 79
2008-12-19 08:17:35 51°15.531 2°53.877 14.9 321 7.2 102330 79
2008-12-19 08:17:40 51°15.545 2°53.867 12.3 306 7.2 102330 79
2008-12-19 08:17:45 51°15.56 2°53.856 12.9 321 7.2 102340 79
2008-12-19 08:17:50 51°15.575 2°53.845 15.6 305 7.2 102340 79
2008-12-19 08:17:55 51°15.59 2°53.835 15.6 319 7.2 102340 80
2008-12-19 08:18:00 51°15.605 2°53.824 12.8 306 7.2 102340 80
2008-12-19 08:18:05 51°15.62 2°53.814 12.4 319 7.2 102340 79
2008-12-19 08:18:10 51°15.635 2°53.803 15.6 305 7.2 102340 79
2008-12-19 08:18:14 51°15.647 2°53.794 13.6 320 7.2 102320 79
2008-12-19 08:18:20 51°15.665 2°53.781 13.8 308 7.2 102320 79
2008-12-19 08:18:25 51°15.68 2°53.77 14.9 320 7.2 102340 80
2008-12-19 08:18:30 51°15.695 2°53.76 13.2 309 7.2 102340 80
2008-12-19 08:18:35 51°15.71 2°53.749 15.7 321 7.2 102340 79
2008-12-19 08:18:40 51°15.725 2°53.739 13.2 304 7.2 102340 79
2008-12-19 08:18:45 51°15.741 2°53.728 14.8 319 7.2 102320 80
2008-12-19 08:18:50 51°15.756 2°53.718 13.8 305 7.2 102320 80
2008-12-19 08:18:54 51°15.768 2°53.71 14.5 320 7.2 102340 79
2008-12-19 08:19:00 51°15.786 2°53.697 12.1 309 7.2 102340 79
2008-12-19 08:19:05 51°15.801 2°53.686 15.2 319 7.2 102330 80
2008-12-19 08:19:09 51°15.813 2°53.677 14.3 303 7.2 102330 80
2008-12-19 08:19:14 51°15.828 2°53.666 14.2 321 7.2 102330 79
2008-12-19 08:19:20 51°15.846 2°53.653 13.9 305 7.2 102330 79
2008-12-19 08:19:25 51°15.861 2°53.642 13 320 7.2 102330 80
2008-12-19 08:19:29 51°15.873 2°53.632 12.9 305 7.2 102330 80
2008-12-19 08:19:34 51°15.888 2°53.621 16.2 319 7.2 102340 80
2008-12-19 08:19:40 51°15.905 2°53.607 12.3 308 7.2 102340 80
2008-12-19 08:19:45 51°15.92 2°53.595 13.1 321 7.2 102330 80
2008-12-19 08:19:50 51°15.935 2°53.583 14.2 308 7.2 102330 80
2008-12-19 08:19:55 51°15.95 2°53.572 13.5 321 7.2 102330 80
2008-12-19 08:20:00 51°15.964 2°53.56 13 307 7.2 102330 80
2008-12-19 08:20:05 51°15.979 2°53.548 12.5 320 7.2 102330 80
2008-12-19 08:20:10 51°15.994 2°53.536 13.5 305 7.2 102330 80
2008-12-19 08:20:15 51°16.009 2°53.524 16 321 7.2 102340 79
2008-12-19 08:20:20 51°16.024 2°53.512 15.7 307 7.2 102340 79
2008-12-19 08:20:25 51°16.038 2°53.5 15 320 7.2 102330 81
2008-12-19 08:20:30 51°16.053 2°53.49 13.3 306 7.2 102330 81
2008-12-19 08:20:34 51°16.065 2°53.48 13.5 321 7.2 102330 80
2008-12-19 08:20:40 51°16.083 2°53.466 12.6 308 7.2 102330 80
2008-12-19 08:20:45 51°16.099 2°53.455 13.3 322 7.2 102320 79
2008-12-19 08:20:50 51°16.113 2°53.444 13.4 308 7.2 102320 79
2008-12-19 08:20:55 51°16.128 2°53.432 12.7 321 7.2 102330 80
2008-12-19 08:21:00 51°16.143 2°53.42 13.1 303 7.2 102330 80
2008-12-19 08:21:05 51°16.158 2°53.408 16.8 322 7.2 102330 81
2008-12-19 08:21:10 51°16.173 2°53.397 14.7 301 7.2 102330 81
2008-12-19 08:21:15 51°16.188 2°53.386 14 321 7.2 102330 81
2008-12-19 08:21:20 51°16.203 2°53.373 13.6 302 7.2 102330 81
2008-12-19 08:21:25 51°16.218 2°53.362 15.1 324 7.1 102330 79
2008-12-19 08:21:30 51°16.233 2°53.35 15.9 302 7.1 102330 79
2008-12-19 08:21:35 51°16.248 2°53.338 16.1 320 7.2 102320 81
2008-12-19 08:21:40 51°16.262 2°53.326 12.5 324 7.2 102320 81
2008-12-19 08:21:45 51°16.277 2°53.314 14 322 7.1 102320 81
2008-12-19 08:21:50 51°16.291 2°53.301 17.1 307 7.1 102320 81
2008-12-19 08:21:55 51°16.306 2°53.289 14.5 322 7.2 102330 81
2008-12-19 08:22:00 51°16.321 2°53.278 14 303 7.2 102330 81
2008-12-19 08:22:05 51°16.335 2°53.266 13.8 321 7.2 102330 80
2008-12-19 08:22:09 51°16.347 2°53.256 17.1 307 7.2 102330 80
2008-12-19 08:22:15 51°16.364 2°53.241 15.3 324 7.2 102330 80
2008-12-19 08:22:20 51°16.379 2°53.23 16.5 307 7.2 102330 80
2008-12-19 08:22:25 51°16.393 2°53.217 15.1 322 7.2 102330 80
2008-12-19 08:22:30 51°16.408 2°53.206 13.1 305 7.2 102330 80
2008-12-19 08:22:35 51°16.423 2°53.194 13.8 322 7.2 102330 81
2008-12-19 08:22:40 51°16.437 2°53.183 12.8 306 7.2 102330 81
2008-12-19 08:22:45 51°16.452 2°53.171 14.3 322 7.2 102330 80
2008-12-19 08:22:50 51°16.467 2°53.159 12.6 306 7.2 102330 80
2008-12-19 08:22:54 51°16.478 2°53.149 15 322 7.2 102330 80
2008-12-19 08:23:00 51°16.496 2°53.134 14.4 308 7.2 102330 80
2008-12-19 08:23:05 51°16.51 2°53.122 15.3 322 7.2 102340 80
2008-12-19 08:23:10 51°16.524 2°53.11 16.1 306 7.2 102340 80
2008-12-19 08:23:15 51°16.539 2°53.097 15.7 323 7.2 102340 80
2008-12-19 08:23:20 51°16.553 2°53.085 16.8 303 7.2 102340 80
2008-12-19 08:23:25 51°16.568 2°53.073 16.5 322 7.2 102330 80
2008-12-19 08:23:30 51°16.582 2°53.06 13.4 306 7.2 102330 80
2008-12-19 08:23:35 51°16.597 2°53.048 15.6 321 7.2 102340 81
2008-12-19 08:23:40 51°16.611 2°53.035 14.1 304 7.2 102340 81
2008-12-19 08:23:45 51°16.626 2°53.023 14.3 322 7.2 102330 81
2008-12-19 08:23:50 51°16.641 2°53.011 15.8 308 7.2 102330 81
2008-12-19 08:23:55 51°16.655 2°52.999 15.5 321 7.2 102330 80
2008-12-19 08:24:00 51°16.67 2°52.988 13 307 7.2 102330 80
2008-12-19 08:24:05 51°16.685 2°52.976 15.1 322 7.2 102330 81
2008-12-19 08:24:10 51°16.699 2°52.964 13.3 307 7.2 102330 81
2008-12-19 08:24:15 51°16.713 2°52.952 14.8 323 7.2 102330 80
2008-12-19 08:24:20 51°16.728 2°52.94 12.9 306 7.2 102330 80
2008-12-19 08:24:25 51°16.742 2°52.928 13.7 323 7.2 102340 81
2008-12-19 08:24:29 51°16.754 2°52.919 15.1 323 7.2 102340 81
2008-12-19 08:24:35 51°16.771 2°52.905 15.1 323 7.2 102330 81
2008-12-19 08:24:40 51°16.786 2°52.894 13.8 302 7.2 102330 81
2008-12-19 08:24:45 51°16.8 2°52.882 13.6 322 7.2 102330 81
2008-12-19 08:24:50 51°16.814 2°52.87 13.1 303 7.2 102330 81
2008-12-19 08:24:54 51°16.826 2°52.86 13.6 324 7.2 102320 81
2008-12-19 08:25:00 51°16.843 2°52.845 16.7 303 7.2 102320 81
2008-12-19 08:25:05 51°16.857 2°52.832 12.8 324 7.2 102330 81
2008-12-19 08:25:10 51°16.872 2°52.819 13.1 323 7.2 102330 81
2008-12-19 08:25:14 51°16.884 2°52.809 14.4 324 7.2 102330 81
2008-12-19 08:25:20 51°16.901 2°52.795 15 305 7.2 102330 81
2008-12-19 08:25:25 51°16.916 2°52.782 13.7 324 7.2 102340 80
2008-12-19 08:25:30 51°16.93 2°52.77 13 304 7.2 102340 80
2008-12-19 08:25:35 51°16.945 2°52.758 14.7 323 7.2 102340 81
2008-12-19 08:25:40 51°16.959 2°52.745 16.4 306 7.2 102340 81
2008-12-19 08:25:45 51°16.974 2°52.733 17.3 323 7.1 102340 81
2008-12-19 08:25:50 51°16.989 2°52.72 13.9 301 7.1 102340 81
2008-12-19 08:25:55 51°17.004 2°52.708 17.7 323 7.2 102330 80
2008-12-19 08:26:00 51°17.018 2°52.696 15 306 7.2 102330 80
2008-12-19 08:26:05 51°17.033 2°52.683 17.1 323 7.2 102320 80
2008-12-19 08:26:10 51°17.048 2°52.67 19.4 305 7.2 102320 80
2008-12-19 08:26:15 51°17.062 2°52.658 18.3 323 7.1 102330 81
2008-12-19 08:26:20 51°17.076 2°52.645 18.4 305 7.1 102330 81
2008-12-19 08:26:25 51°17.091 2°52.632 17.7 320 7.2 102330 81
2008-12-19 08:26:29 51°17.102 2°52.623 16.5 306 7.2 102330 81
2008-12-19 08:26:35 51°17.119 2°52.608 15.5 324 7.1 102320 80
2008-12-19 08:26:40 51°17.134 2°52.596 13.7 324 7.1 102320 80
2008-12-19 08:26:45 51°17.148 2°52.584 16.8 325 7.2 102320 81
2008-12-19 08:26:50 51°17.163 2°52.572 16 304 7.2 102320 81
2008-12-19 08:26:55 51°17.177 2°52.56 13.6 322 7.2 102330 80
2008-12-19 08:27:00 51°17.191 2°52.548 16.4 305 7.2 102330 80
2008-12-19 08:27:05 51°17.206 2°52.536 13.5 324 7.2 102320 80
2008-12-19 08:27:10 51°17.22 2°52.524 16.4 305 7.2 102320 80
2008-12-19 08:27:14 51°17.232 2°52.515 16.8 323 7.2 102340 80
2008-12-19 08:27:20 51°17.25 2°52.501 13.6 302 7.2 102340 80
2008-12-19 08:27:25 51°17.264 2°52.489 14 324 7.2 102330 80
2008-12-19 08:27:30 51°17.279 2°52.477 13.9 305 7.2 102330 80
2008-12-19 08:27:35 51°17.294 2°52.465 16.6 321 7.2 102340 80
2008-12-19 08:27:40 51°17.309 2°52.454 14.2 324 7.2 102340 80
2008-12-19 08:27:45 51°17.323 2°52.443 15.4 322 7.2 102330 80
2008-12-19 08:27:50 51°17.338 2°52.433 14 308 7.2 102330 80
2008-12-19 08:27:55 51°17.354 2°52.422 13 320 7.2 102340 81
2008-12-19 08:28:00 51°17.368 2°52.411 16.4 304 7.2 102340 81
2008-12-19 08:28:05 51°17.383 2°52.399 13.9 321 7.2 102330 80
2008-12-19 08:28:10 51°17.398 2°52.389 16.3 308 7.2 102330 80
2008-12-19 08:28:15 51°17.414 2°52.378 13.7 322 7.2 102340 81
2008-12-19 08:28:20 51°17.429 2°52.368 13.4 307 7.2 102340 81
2008-12-19 08:28:25 51°17.444 2°52.356 16.7 323 7.2 102340 81
2008-12-19 08:28:30 51°17.46 2°52.346 16.5 303 7.2 102340 81
2008-12-19 08:28:35 51°17.475 2°52.336 13.5 321 7.2 102340 81
2008-12-19 08:28:40 51°17.49 2°52.325 13.5 305 7.2 102340 81
2008-12-19 08:28:45 51°17.506 2°52.316 14 321 7.2 102340 81
2008-12-19 08:28:49 51°17.518 2°52.307 17.6 305 7.2 102340 81
2008-12-19 08:28:55 51°17.536 2°52.294 18.5 321 7.2 102330 81
2008-12-19 08:29:00 51°17.552 2°52.283 16.1 306 7.2 102330 81
2008-12-19 08:29:05 51°17.567 2°52.273 17.7 321 7.2 102340 81
2008-12-19 08:29:10 51°17.583 2°52.263 13.9 305 7.2 102340 81
2008-12-19 08:29:15 51°17.597 2°52.253 18 322 7.2 102340 80
2008-12-19 08:29:20 51°17.612 2°52.242 15.4 305 7.2 102340 80
2008-12-19 08:29:25 51°17.628 2°52.231 13.7 323 7.2 102330 81
2008-12-19 08:29:30 51°17.642 2°52.221 15.7 306 7.2 102330 81
2008-12-19 08:29:34 51°17.655 2°52.212 16.7 321 7.2 102330 80
2008-12-19 08:29:40 51°17.673 2°52.198 15.9 305 7.2 102330 80
2008-12-19 08:29:45 51°17.688 2°52.187 16.9 321 7.2 102340 81
2008-12-19 08:29:50 51°17.703 2°52.175 13.5 306 7.2 102340 81
2008-12-19 08:29:55 51°17.718 2°52.164 13.6 321 7.2 102340 81
2008-12-19 08:30:00 51°17.733 2°52.153 16.5 323 7.2 102340 81
2008-12-19 08:30:05 51°17.749 2°52.142 15.9 323 7.2 102330 80
2008-12-19 08:30:10 51°17.764 2°52.13 17.2 304 7.2 102330 80
2008-12-19 08:30:15 51°17.779 2°52.119 14.6 323 7.2 102340 80
2008-12-19 08:30:20 51°17.794 2°52.107 14.7 303 7.2 102340 80
2008-12-19 08:30:25 51°17.81 2°52.095 16.7 321 7.2 102340 80
2008-12-19 08:30:30 51°17.825 2°52.084 17.1 302 7.2 102340 80
2008-12-19 08:30:35 51°17.84 2°52.073 14.2 321 7.2 102330 81
2008-12-19 08:30:40 51°17.855 2°52.061 18.4 306 7.2 102330 81
2008-12-19 08:30:45 51°17.87 2°52.05 18.6 322 7.2 102340 81
2008-12-19 08:30:50 51°17.885 2°52.038 17.4 308 7.2 102340 81
2008-12-19 08:30:55 51°17.899 2°52.026 14.5 325 7.2 102340 81
2008-12-19 08:31:00 51°17.914 2°52.015 14.3 303 7.2 102340 81
2008-12-19 08:31:05 51°17.929 2°52.002 13.5 324 7.2 102340 80
2008-12-19 08:31:09 51°17.941 2°51.993 17.6 303 7.2 102340 80
2008-12-19 08:31:15 51°17.959 2°51.979 17.2 323 7.2 102340 80
2008-12-19 08:31:20 51°17.974 2°51.968 17.1 306 7.2 102340 80
2008-12-19 08:31:25 51°17.989 2°51.956 17 322 7.2 102340 80
2008-12-19 08:31:30 51°18.004 2°51.945 18.3 306 7.2 102340 80
2008-12-19 08:31:34 51°18.016 2°51.936 14.3 322 7.2 102350 80
2008-12-19 08:31:40 51°18.034 2°51.921 18.1 305 7.2 102350 80
2008-12-19 08:31:45 51°18.049 2°51.91 14.6 321 7.2 102350 79
2008-12-19 08:31:50 51°18.064 2°51.899 17.7 304 7.2 102350 79
2008-12-19 08:31:54 51°18.076 2°51.89 15.9 321 7.2 102350 80
2008-12-19 08:32:00 51°18.094 2°51.877 16 304 7.2 102350 80
2008-12-19 08:32:05 51°18.109 2°51.866 13.9 322 7.2 102350 81
2008-12-19 08:32:10 51°18.123 2°51.855 14.3 303 7.2 102350 81
2008-12-19 08:32:15 51°18.138 2°51.844 14.4 323 7.2 102330 79
2008-12-19 08:32:20 51°18.153 2°51.832 14.4 303 7.2 102330 79
2008-12-19 08:32:25 51°18.168 2°51.821 18.1 322 7.2 102340 80
2008-12-19 08:32:30 51°18.183 2°51.81 15.4 306 7.2 102340 80
2008-12-19 08:32:35 51°18.198 2°51.799 13 323 7.2 102340 80
2008-12-19 08:32:40 51°18.212 2°51.787 17 302 7.2 102340 80
2008-12-19 08:32:45 51°18.227 2°51.775 16.4 322 7.2 102330 79
2008-12-19 08:32:50 51°18.241 2°51.765 14.1 305 7.2 102330 79
2008-12-19 08:32:54 51°18.253 2°51.755 13.8 322 7.2 102320 80
2008-12-19 08:33:00 51°18.271 2°51.741 16.2 305 7.2 102320 80
2008-12-19 08:33:05 51°18.285 2°51.729 15.8 324 7.2 102350 80
2008-12-19 08:33:09 51°18.297 2°51.719 13 304 7.2 102350 80
2008-12-19 08:33:15 51°18.314 2°51.704 16.4 321 7.2 102340 80
2008-12-19 08:33:20 51°18.329 2°51.692 16.6 323 7.2 102340 80
2008-12-19 08:33:25 51°18.344 2°51.679 15.8 322 7.2 102330 80
2008-12-19 08:33:29 51°18.356 2°51.669 14.3 306 7.2 102330 80
2008-12-19 08:33:35 51°18.374 2°51.656 14.1 323 7.2 102340 80
2008-12-19 08:33:40 51°18.389 2°51.644 14.1 305 7.2 102340 80
2008-12-19 08:33:45 51°18.404 2°51.632 13.9 323 7.2 102330 80
2008-12-19 08:33:50 51°18.42 2°51.62 14.8 304 7.2 102330 80
2008-12-19 08:33:55 51°18.435 2°51.608 13.8 322 7.2 102320 80
2008-12-19 08:34:00 51°18.45 2°51.596 17.2 303 7.2 102320 80
2008-12-19 08:34:05 51°18.465 2°51.585 16.5 323 7.2 102340 81
2008-12-19 08:34:10 51°18.481 2°51.573 16.5 303 7.2 102340 81
2008-12-19 08:34:14 51°18.492 2°51.563 16 321 7.1 102330 80
2008-12-19 08:34:20 51°18.511 2°51.549 16.6 304 7.1 102330 80
2008-12-19 08:34:25 51°18.526 2°51.537 14.1 320 7.1 102320 81
2008-12-19 08:34:30 51°18.541 2°51.525 14.9 305 7.1 102320 81
2008-12-19 08:34:35 51°18.557 2°51.513 14.2 321 7.1 102330 81
2008-12-19 08:34:40 51°18.572 2°51.501 16.4 307 7.1 102330 81
2008-12-19 08:34:45 51°18.587 2°51.489 16.6 323 7.1 102330 81
2008-12-19 08:34:50 51°18.603 2°51.477 15.5 303 7.1 102330 81
2008-12-19 08:34:55 51°18.618 2°51.465 18.1 322 7.1 102340 81
2008-12-19 08:35:00 51°18.633 2°51.453 15.3 307 7.1 102340 81
2008-12-19 08:35:05 51°18.648 2°51.441 14.2 321 7.1 102320 80
2008-12-19 08:35:10 51°18.663 2°51.43 14.1 304 7.1 102320 80
2008-12-19 08:35:15 51°18.678 2°51.419 13.4 321 7.1 102330 80
2008-12-19 08:35:20 51°18.692 2°51.407 13.5 303 7.1 102330 80
2008-12-19 08:35:25 51°18.707 2°51.396 16.7 322 7.1 102330 81
2008-12-19 08:35:30 51°18.722 2°51.385 15 281 7.1 102330 81
2008-12-19 08:35:35 51°18.736 2°51.373 16.1 323 7.1 102350 81
2008-12-19 08:35:40 51°18.751 2°51.362 14.1 306 7.1 102350 81
2008-12-19 08:35:45 51°18.766 2°51.35 14 324 7.1 102350 82
2008-12-19 08:35:50 51°18.78 2°51.339 14 322 7.1 102350 82
2008-12-19 08:35:55 51°18.795 2°51.328 16.7 322 7.1 102330 81
2008-12-19 08:36:00 51°18.81 2°51.316 16.3 322 7.1 102330 81
2008-12-19 08:36:05 51°18.824 2°51.306 16.5 320 7.1 102340 81
2008-12-19 08:36:10 51°18.838 2°51.294 15.1 305 7.1 102340 81
2008-12-19 08:36:14 51°18.85 2°51.285 14.3 321 7.1 102330 82
2008-12-19 08:36:20 51°18.867 2°51.271 14.5 307 7.1 102330 82
2008-12-19 08:36:25 51°18.882 2°51.26 14.5 321 7.1 102330 82
2008-12-19 08:36:30 51°18.897 2°51.249 16.5 278 7.1 102330 82
2008-12-19 08:36:35 51°18.912 2°51.238 16.7 322 7.1 102340 82
2008-12-19 08:36:40 51°18.926 2°51.228 16.6 305 7.1 102340 82
2008-12-19 08:36:45 51°18.94 2°51.217 12.8 322 7.1 102340 81
2008-12-19 08:36:50 51°18.954 2°51.205 13.9 306 7.1 102340 81
2008-12-19 08:36:55 51°18.969 2°51.194 15.9 320 7.1 102340 81
2008-12-19 08:37:00 51°18.983 2°51.182 18.7 304 7.1 102340 81
2008-12-19 08:37:05 51°18.998 2°51.171 14.4 320 7.1 102340 80
2008-12-19 08:37:10 51°19.012 2°51.159 15.5 307 7.1 102340 80
2008-12-19 08:37:15 51°19.027 2°51.147 16.1 321 7.1 102340 81
2008-12-19 08:37:20 51°19.041 2°51.136 17.3 305 7.1 102340 81
2008-12-19 08:37:25 51°19.056 2°51.125 18.2 321 7.1 102330 80
2008-12-19 08:37:30 51°19.071 2°51.114 14.6 284 7.1 102330 80
2008-12-19 08:37:35 51°19.085 2°51.102 14.9 322 7.1 102330 80
2008-12-19 08:37:40 51°19.1 2°51.09 14.4 324 7.1 102330 80
2008-12-19 08:37:45 51°19.114 2°51.079 14.3 323 7.1 102330 79
2008-12-19 08:37:50 51°19.129 2°51.067 16.9 303 7.1 102330 79
2008-12-19 08:37:55 51°19.144 2°51.055 14.7 322 7.1 102350 79
2008-12-19 08:38:00 51°19.158 2°51.044 15.6 307 7.1 102350 79
2008-12-19 08:38:05 51°19.173 2°51.032 14.2 323 7.1 102340 79
2008-12-19 08:38:10 51°19.188 2°51.021 19.1 304 7.1 102340 79
2008-12-19 08:38:15 51°19.203 2°51.01 16.1 322 7.1 102340 79
2008-12-19 08:38:20 51°19.218 2°50.999 14.5 304 7.1 102340 79
2008-12-19 08:38:25 51°19.233 2°50.987 17.3 323 7.1 102330 79
2008-12-19 08:38:30 51°19.247 2°50.975 14.5 281 7.1 102330 79
2008-12-19 08:38:34 51°19.259 2°50.967 14.7 323 7.1 102330 80
2008-12-19 08:38:40 51°19.277 2°50.953 16.2 306 7.1 102330 80
2008-12-19 08:38:45 51°19.291 2°50.942 15.3 322 7.1 102320 79
2008-12-19 08:38:50 51°19.306 2°50.93 13.2 309 7.1 102320 79
2008-12-19 08:38:55 51°19.321 2°50.918 17.7 323 7.1 102340 80
2008-12-19 08:39:00 51°19.335 2°50.907 14.6 302 7.1 102340 80
2008-12-19 08:39:05 51°19.35 2°50.894 16.9 323 7.1 102340 80
2008-12-19 08:39:10 51°19.365 2°50.883 14.6 303 7.1 102340 80
2008-12-19 08:39:15 51°19.379 2°50.871 17.4 323 7.1 102340 80
2008-12-19 08:39:20 51°19.394 2°50.861 16.2 302 7.1 102340 80
2008-12-19 08:39:25 51°19.408 2°50.847 15.8 322 7.1 102330 80
2008-12-19 08:39:30 51°19.423 2°50.836 13.9 285 7.1 102330 80
2008-12-19 08:39:35 51°19.437 2°50.824 14.5 321 7.1 102350 80
2008-12-19 08:39:40 51°19.452 2°50.812 16.3 305 7.1 102350 80
2008-12-19 08:39:45 51°19.466 2°50.801 16.7 321 7.1 102330 80
2008-12-19 08:39:50 51°19.481 2°50.789 14.3 307 7.1 102330 80
2008-12-19 08:39:55 51°19.496 2°50.778 17.1 322 7.1 102330 80
2008-12-19 08:40:00 51°19.51 2°50.765 17.2 306 7.1 102330 80
2008-12-19 08:40:05 51°19.525 2°50.754 15.1 323 7.1 102330 80
2008-12-19 08:40:09 51°19.537 2°50.744 13.2 307 7.1 102330 80
2008-12-19 08:40:15 51°19.554 2°50.729 15.9 322 7.1 102360 81
2008-12-19 08:40:20 51°19.569 2°50.717 13.1 302 7.1 102360 81
2008-12-19 08:40:25 51°19.584 2°50.704 15.5 322 7.1 102330 81
2008-12-19 08:40:30 51°19.598 2°50.692 12.6 278 7.1 102330 81
2008-12-19 08:40:35 51°19.613 2°50.679 13 321 7.1 102340 80
2008-12-19 08:40:40 51°19.628 2°50.667 14.4 306 7.1 102340 80
2008-12-19 08:40:45 51°19.642 2°50.655 14.3 324 7.1 102350 81
2008-12-19 08:40:50 51°19.657 2°50.643 13.9 308 7.1 102350 81
2008-12-19 08:40:54 51°19.668 2°50.632 16.1 321 7.1 102360 80
2008-12-19 08:41:00 51°19.686 2°50.618 14.6 308 7.1 102360 80
2008-12-19 08:41:05 51°19.701 2°50.605 17.2 319 7.1 102350 81
2008-12-19 08:41:10 51°19.715 2°50.593 18.4 305 7.1 102350 81
2008-12-19 08:41:15 51°19.73 2°50.581 16.3 322 7.1 102340 80
2008-12-19 08:41:20 51°19.745 2°50.57 18 305 7.1 102340 80
2008-12-19 08:41:25 51°19.76 2°50.558 15.3 319 7.1 102320 80
2008-12-19 08:41:30 51°19.775 2°50.548 18.6 284 7.1 102320 80
2008-12-19 08:41:35 51°19.79 2°50.537 19.1 320 7.1 102350 80
2008-12-19 08:41:40 51°19.806 2°50.528 18.4 307 7.1 102350 80
2008-12-19 08:41:45 51°19.821 2°50.518 16.2 319 7.1 102340 80
2008-12-19 08:41:50 51°19.836 2°50.508 17.9 306 7.1 102340 80
2008-12-19 08:41:55 51°19.852 2°50.499 18.7 318 7.1 102330 79
2008-12-19 08:42:00 51°19.868 2°50.49 18.7 307 7.1 102330 79
2008-12-19 08:42:05 51°19.884 2°50.48 14.3 319 7.1 102330 78
2008-12-19 08:42:10 51°19.899 2°50.472 13.7 309 7.1 102330 78
2008-12-19 08:42:15 51°19.915 2°50.462 18.3 318 7.1 102330 78
2008-12-19 08:42:20 51°19.931 2°50.453 18.2 306 7.1 102330 78
2008-12-19 08:42:25 51°19.947 2°50.444 16.3 320 7.1 102320 79
2008-12-19 08:42:30 51°19.962 2°50.435 18.9 282 7.1 102320 79
2008-12-19 08:42:35 51°19.978 2°50.426 17.7 319 7.1 102340 79
2008-12-19 08:42:40 51°19.994 2°50.416 16.4 306 7.1 102340 79
2008-12-19 08:42:45 51°20.01 2°50.407 15.8 318 7.1 102340 78
2008-12-19 08:42:50 51°20.025 2°50.397 15.3 305 7.1 102340 78
2008-12-19 08:42:55 51°20.041 2°50.389 16.9 319 7.1 102330 79
2008-12-19 08:43:00 51°20.057 2°50.38 14 308 7.1 102330 79
2008-12-19 08:43:05 51°20.072 2°50.371 14 318 7.2 102320 78
2008-12-19 08:43:10 51°20.087 2°50.363 17 304 7.2 102320 78
2008-12-19 08:43:15 51°20.103 2°50.354 13.8 319 7.2 102340 78
2008-12-19 08:43:20 51°20.118 2°50.346 17.4 307 7.2 102340 78
2008-12-19 08:43:25 51°20.133 2°50.337 17.1 317 7.2 102320 79
2008-12-19 08:43:30 51°20.149 2°50.328 18 281 7.2 102320 79
2008-12-19 08:43:34 51°20.161 2°50.32 17.7 319 7.2 102360 78
2008-12-19 08:43:40 51°20.18 2°50.309 14.9 306 7.2 102360 78
2008-12-19 08:43:45 51°20.196 2°50.3 13.8 319 7.2 102330 79
2008-12-19 08:43:49 51°20.208 2°50.293 16.7 307 7.2 102330 79
2008-12-19 08:43:54 51°20.223 2°50.283 18.8 317 7.2 102340 78
2008-12-19 08:44:00 51°20.242 2°50.272 14.1 305 7.2 102340 78
2008-12-19 08:44:05 51°20.258 2°50.262 16.9 317 7.2 102330 78
2008-12-19 08:44:09 51°20.27 2°50.255 17.7 307 7.2 102330 78
2008-12-19 08:44:14 51°20.285 2°50.246 12.9 319 7.2 102340 78
2008-12-19 08:44:20 51°20.304 2°50.236 14.4 304 7.2 102340 78
2008-12-19 08:44:25 51°20.32 2°50.227 15 320 7.2 102340 79
2008-12-19 08:44:29 51°20.332 2°50.22 16.8 279 7.2 102340 79
2008-12-19 08:44:34 51°20.348 2°50.211 17.6 318 7.2 102350 79
2008-12-19 08:44:40 51°20.367 2°50.2 13.8 302 7.2 102350 79
2008-12-19 08:44:45 51°20.382 2°50.19 16.9 319 7.2 102340 79
2008-12-19 08:44:49 51°20.395 2°50.183 15.8 306 7.2 102340 79
2008-12-19 08:44:54 51°20.411 2°50.173 17.4 316 7.2 102340 79
2008-12-19 08:45:00 51°20.429 2°50.163 16.5 307 7.2 102340 79
2008-12-19 08:45:05 51°20.445 2°50.154 15.7 317 7.2 102340 80
2008-12-19 08:45:09 51°20.457 2°50.147 16.6 306 7.2 102340 80
2008-12-19 08:45:14 51°20.473 2°50.139 15.3 319 7.2 102350 79
2008-12-19 08:45:20 51°20.491 2°50.127 18.1 305 7.2 102350 79
2008-12-19 08:45:25 51°20.507 2°50.118 17.1 318 7.2 102340 80
2008-12-19 08:45:29 51°20.52 2°50.11 14.3 279 7.2 102340 80
2008-12-19 08:45:34 51°20.535 2°50.101 15 319 7.1 102320 79
2008-12-19 08:45:40 51°20.554 2°50.09 18.3 305 7.1 102320 79
2008-12-19 08:45:45 51°20.57 2°50.081 17.9 320 7.2 102320 79
2008-12-19 08:45:49 51°20.583 2°50.074 15.9 306 7.2 102320 79
2008-12-19 08:45:54 51°20.599 2°50.065 17.5 318 7.2 102340 79
2008-12-19 08:46:00 51°20.618 2°50.054 15 304 7.2 102340 79
2008-12-19 08:46:05 51°20.634 2°50.045 14.8 319 7.2 102330 78
2008-12-19 08:46:09 51°20.646 2°50.037 15 308 7.2 102330 78
2008-12-19 08:46:14 51°20.662 2°50.029 15 319 7.2 102330 79
2008-12-19 08:46:20 51°20.681 2°50.019 12.8 305 7.2 102330 79
2008-12-19 08:46:25 51°20.697 2°50.01 14.3 318 7.2 102340 78
2008-12-19 08:46:29 51°20.71 2°50.007 17.1 281 7.2 102340 78
2008-12-19 08:46:34 51°20.726 2°50 12.5 315 7.2 102340 79
2008-12-19 08:46:40 51°20.746 2°49.996 16 306 7.2 102340 79
2008-12-19 08:46:45 51°20.763 2°49.991 13.8 24 7.2 102330 79
2008-12-19 08:46:49 51°20.776 2°49.991 15.5 303 7.2 102330 79
2008-12-19 08:46:54 51°20.792 2°49.989 12.5 27 7.2 102350 80
2008-12-19 08:47:00 51°20.812 2°49.99 17.8 307 7.2 102350 80
2008-12-19 08:47:05 51°20.829 2°49.992 16.9 22 7.2 102340 79
2008-12-19 08:47:09 51°20.842 2°49.993 15.2 308 7.2 102340 79
2008-12-19 08:47:14 51°20.859 2°49.995 17.4 22 7.1 102340 79
2008-12-19 08:47:20 51°20.879 2°49.999 16.1 305 7.1 102340 79
2008-12-19 08:47:25 51°20.895 2°50.002 14.2 25 7.1 102330 80
2008-12-19 08:47:29 51°20.908 2°50.007 13.1 279 7.1 102330 80
2008-12-19 08:47:34 51°20.924 2°50.012 13.1 21 7.1 102320 79
2008-12-19 08:47:40 51°20.943 2°50.019 12.2 305 7.1 102320 79
2008-12-19 08:47:45 51°20.96 2°50.025 13.9 24 7.1 102330 79
2008-12-19 08:47:49 51°20.973 2°50.031 12.8 307 7.1 102330 79
2008-12-19 08:47:54 51°20.989 2°50.037 14.2 22 7.1 102330 79
2008-12-19 08:48:00 51°21.008 2°50.046 11.9 306 7.1 102330 79
2008-12-19 08:48:05 51°21.025 2°50.053 15.7 21 7.2 102340 79
2008-12-19 08:48:09 51°21.038 2°50.059 15 304 7.2 102340 79
2008-12-19 08:48:14 51°21.054 2°50.065 12.9 25 7.2 102340 80
2008-12-19 08:48:20 51°21.074 2°50.073 15.5 306 7.2 102340 80
2008-12-19 08:48:25 51°21.09 2°50.082 12.7 24 7.2 102350 79
2008-12-19 08:48:29 51°21.103 2°50.085 13 309 7.2 102350 79
2008-12-19 08:48:34 51°21.12 2°50.092 13.7 24 7.2 102340 80
2008-12-19 08:48:40 51°21.14 2°50.101 14.8 308 7.2 102340 80
2008-12-19 08:48:45 51°21.156 2°50.107 11.9 23 7.1 102340 80
2008-12-19 08:48:50 51°21.173 2°50.114 12.8 307 7.1 102340 80
2008-12-19 08:48:55 51°21.189 2°50.121 15.5 23 7.2 102330 80
2008-12-19 08:49:00 51°21.205 2°50.129 15.7 306 7.2 102330 80
2008-12-19 08:49:05 51°21.222 2°50.135 14 25 7.2 102330 79
2008-12-19 08:49:10 51°21.238 2°50.14 14.8 306 7.2 102330 79
2008-12-19 08:49:15 51°21.254 2°50.147 11.6 22 7.2 102340 80
2008-12-19 08:49:20 51°21.271 2°50.154 13.1 304 7.2 102340 80
2008-12-19 08:49:25 51°21.287 2°50.16 13 22 7.1 102320 79
2008-12-19 08:49:30 51°21.304 2°50.167 15 277 7.1 102320 79
2008-12-19 08:49:35 51°21.32 2°50.173 15.1 27 7.1 102340 80
2008-12-19 08:49:40 51°21.337 2°50.18 13.7 304 7.1 102340 80
2008-12-19 08:49:45 51°21.353 2°50.184 13.6 25 7.1 102360 79
2008-12-19 08:49:50 51°21.37 2°50.193 15 301 7.1 102360 79
2008-12-19 08:49:55 51°21.386 2°50.197 13.5 28 7.1 102340 80
2008-12-19 08:50:00 51°21.402 2°50.204 15.5 302 7.1 102340 80
2008-12-19 08:50:05 51°21.419 2°50.208 15.4 25 7.2 102340 79
2008-12-19 08:50:10 51°21.435 2°50.215 16.1 304 7.2 102340 79
2008-12-19 08:50:14 51°21.448 2°50.216 14.2 26 7.2 102340 80
2008-12-19 08:50:20 51°21.468 2°50.222 16 305 7.2 102340 80
2008-12-19 08:50:25 51°21.484 2°50.224 14.5 20 7.2 102360 80
2008-12-19 08:50:29 51°21.498 2°50.226 14.6 282 7.2 102360 80
2008-12-19 08:50:34 51°21.515 2°50.229 13.3 23 7.2 102340 81
2008-12-19 08:50:40 51°21.535 2°50.232 16.7 305 7.2 102340 81
2008-12-19 08:50:45 51°21.552 2°50.235 16 24 7.1 102350 80
2008-12-19 08:50:49 51°21.565 2°50.236 12.8 301 7.1 102350 80
2008-12-19 08:50:54 51°21.582 2°50.24 16.4 22 7.2 102350 80
2008-12-19 08:51:00 51°21.602 2°50.242 16.2 306 7.2 102350 80
2008-12-19 08:51:05 51°21.619 2°50.244 16.3 22 7.1 102350 80
2008-12-19 08:51:09 51°21.633 2°50.245 14.2 303 7.1 102350 80
2008-12-19 08:51:14 51°21.649 2°50.249 15.1 25 7.1 102330 81
2008-12-19 08:51:20 51°21.669 2°50.25 13.4 305 7.1 102330 81
2008-12-19 08:51:25 51°21.686 2°50.253 13.4 21 7.1 102340 80
2008-12-19 08:51:29 51°21.699 2°50.254 15.6 279 7.1 102340 80
2008-12-19 08:51:35 51°21.719 2°50.257 13.1 28 7.1 102340 80
2008-12-19 08:51:40 51°21.736 2°50.259 14.3 304 7.1 102340 80
2008-12-19 08:51:45 51°21.753 2°50.26 14.3 22 7.1 102340 79
2008-12-19 08:51:50 51°21.769 2°50.262 15.1 304 7.1 102340 79
2008-12-19 08:51:55 51°21.786 2°50.262 15 24 7.1 102350 78
2008-12-19 08:52:00 51°21.802 2°50.263 13.9 306 7.1 102350 78
2008-12-19 08:52:05 51°21.819 2°50.264 14.2 23 7.1 102340 78
2008-12-19 08:52:10 51°21.836 2°50.265 18.2 307 7.1 102340 78
2008-12-19 08:52:15 51°21.852 2°50.265 18.6 24 7.1 102330 79
2008-12-19 08:52:20 51°21.869 2°50.264 17.1 305 7.1 102330 79
2008-12-19 08:52:25 51°21.886 2°50.265 18.7 22 7.2 102340 78
2008-12-19 08:52:30 51°21.903 2°50.265 17 306 7.2 102340 78
2008-12-19 08:52:34 51°21.916 2°50.266 14 24 7.2 102320 78
2008-12-19 08:52:40 51°21.936 2°50.266 15.4 310 7.2 102320 78
2008-12-19 08:52:45 51°21.953 2°50.266 14.9 20 7.2 102330 78
2008-12-19 08:52:50 51°21.969 2°50.266 16.6 308 7.2 102330 78
2008-12-19 08:52:54 51°21.983 2°50.266 16.3 22 7.2 102340 78
2008-12-19 08:53:00 51°22.003 2°50.267 14.2 305 7.2 102340 78
2008-12-19 08:53:05 51°22.019 2°50.266 16.2 24 7.2 102340 78
2008-12-19 08:53:10 51°22.036 2°50.266 13.3 305 7.2 102340 78
2008-12-19 08:53:15 51°22.053 2°50.266 15.8 24 7.2 102340 78
2008-12-19 08:53:20 51°22.07 2°50.265 17.2 309 7.2 102340 78
2008-12-19 08:53:25 51°22.086 2°50.265 17 23 7.2 102350 78
2008-12-19 08:53:30 51°22.104 2°50.264 13.6 305 7.2 102350 78
2008-12-19 08:53:35 51°22.121 2°50.264 13.1 24 7.2 102350 79
2008-12-19 08:53:40 51°22.137 2°50.264 12.9 303 7.2 102350 79
2008-12-19 08:53:45 51°22.154 2°50.264 15.8 24 7.2 102340 78
2008-12-19 08:53:49 51°22.168 2°50.264 14.4 302 7.2 102340 78
2008-12-19 08:53:55 51°22.189 2°50.263 13.6 28 7.2 102340 79
2008-12-19 08:54:00 51°22.206 2°50.263 17.1 303 7.2 102340 79
2008-12-19 08:54:05 51°22.223 2°50.263 17.1 24 7.2 102340 79
2008-12-19 08:54:10 51°22.24 2°50.263 17.3 306 7.2 102340 79
2008-12-19 08:54:15 51°22.257 2°50.262 17 25 7.2 102350 79
2008-12-19 08:54:20 51°22.274 2°50.263 17.7 304 7.2 102350 79
2008-12-19 08:54:25 51°22.291 2°50.262 16.6 21 7.2 102350 79
2008-12-19 08:54:30 51°22.308 2°50.262 14 302 7.2 102350 79
2008-12-19 08:54:34 51°22.321 2°50.263 12.7 21 7.2 102350 80
2008-12-19 08:54:40 51°22.341 2°50.264 16 306 7.2 102350 80
2008-12-19 08:54:45 51°22.358 2°50.263 16.2 22 7.2 102340 79
2008-12-19 08:54:50 51°22.376 2°50.264 15.6 307 7.2 102340 79
2008-12-19 08:54:54 51°22.389 2°50.264 13.9 26 7.2 102340 79
2008-12-19 08:55:00 51°22.41 2°50.264 17 306 7.2 102340 79
2008-12-19 08:55:05 51°22.427 2°50.266 14.6 22 7.2 102350 80
2008-12-19 08:55:10 51°22.444 2°50.266 15.6 306 7.2 102350 80
2008-12-19 08:55:15 51°22.461 2°50.267 15.8 24 7.2 102350 79
2008-12-19 08:55:20 51°22.478 2°50.267 16.1 306 7.2 102350 79
2008-12-19 08:55:25 51°22.495 2°50.268 16.5 24 7.2 102330 78
2008-12-19 08:55:30 51°22.512 2°50.268 15.2 305 7.2 102330 78
2008-12-19 08:55:35 51°22.529 2°50.268 13 21 7.2 102330 79
2008-12-19 08:55:40 51°22.546 2°50.269 15.6 305 7.2 102330 79
2008-12-19 08:55:45 51°22.563 2°50.27 16.8 25 7.2 102360 79
2008-12-19 08:55:50 51°22.58 2°50.271 13.1 306 7.2 102360 79
2008-12-19 08:55:55 51°22.597 2°50.271 13.2 23 7.2 102350 80
2008-12-19 08:56:00 51°22.614 2°50.27 12 309 7.2 102350 80
2008-12-19 08:56:05 51°22.631 2°50.27 15.6 21 7.2 102340 79
2008-12-19 08:56:10 51°22.648 2°50.269 13.4 310 7.2 102340 79
2008-12-19 08:56:15 51°22.665 2°50.269 13.7 24 7.2 102350 80
2008-12-19 08:56:20 51°22.682 2°50.27 15 305 7.2 102350 80
2008-12-19 08:56:25 51°22.699 2°50.271 15.9 25 7.2 102350 80
2008-12-19 08:56:30 51°22.716 2°50.271 16.5 282 7.2 102350 80
2008-12-19 08:56:35 51°22.733 2°50.272 14 27 7.2 102360 80
2008-12-19 08:56:40 51°22.75 2°50.272 14 308 7.2 102360 80
2008-12-19 08:56:45 51°22.766 2°50.273 12.9 25 7.2 102350 81
2008-12-19 08:56:50 51°22.783 2°50.274 13.2 308 7.2 102350 81
2008-12-19 08:56:54 51°22.797 2°50.273 16.7 22 7.2 102330 80
2008-12-19 08:57:00 51°22.817 2°50.274 16.6 309 7.2 102330 80
2008-12-19 08:57:05 51°22.834 2°50.273 15.5 22 7.2 102340 80
2008-12-19 08:57:10 51°22.851 2°50.274 15 303 7.2 102340 80
2008-12-19 08:57:14 51°22.864 2°50.274 14.8 23 7.2 102350 80
2008-12-19 08:57:20 51°22.884 2°50.274 15.3 305 7.2 102350 80
2008-12-19 08:57:25 51°22.901 2°50.273 14.9 24 7.2 102350 80
2008-12-19 08:57:30 51°22.918 2°50.273 13.3 278 7.2 102350 80
2008-12-19 08:57:35 51°22.935 2°50.274 15 26 7.2 102360 80
2008-12-19 08:57:40 51°22.952 2°50.273 16.4 304 7.2 102360 80
2008-12-19 08:57:45 51°22.969 2°50.274 15.2 25 7.2 102370 81
2008-12-19 08:57:50 51°22.986 2°50.274 17 306 7.2 102370 81
2008-12-19 08:57:55 51°23.004 2°50.274 13.5 24 7.2 102360 80
2008-12-19 08:58:00 51°23.021 2°50.274 17 305 7.2 102360 80
2008-12-19 08:58:05 51°23.038 2°50.275 14.5 24 7.2 102350 80
2008-12-19 08:58:10 51°23.055 2°50.275 12.9 305 7.2 102350 80
2008-12-19 08:58:15 51°23.072 2°50.275 13.5 22 7.2 102350 80
2008-12-19 08:58:20 51°23.089 2°50.275 17.8 304 7.2 102350 80
2008-12-19 08:58:25 51°23.106 2°50.276 14.3 22 7.2 102350 80
2008-12-19 08:58:30 51°23.122 2°50.277 13 308 7.2 102350 80
2008-12-19 08:58:35 51°23.139 2°50.277 14.4 23 7.2 102360 80
2008-12-19 08:58:40 51°23.156 2°50.277 14.4 308 7.2 102360 80
2008-12-19 08:58:45 51°23.172 2°50.278 13.9 22 7.2 102370 80
2008-12-19 08:58:50 51°23.189 2°50.278 13.5 304 7.2 102370 80
2008-12-19 08:58:55 51°23.205 2°50.279 14.4 24 7.2 102350 80
2008-12-19 08:59:00 51°23.222 2°50.281 15.3 305 7.2 102350 80
2008-12-19 08:59:05 51°23.238 2°50.279 14.2 25 7.2 102360 81
2008-12-19 08:59:10 51°23.255 2°50.28 13.4 305 7.2 102360 81
2008-12-19 08:59:14 51°23.268 2°50.28 15 25 7.2 102370 80
2008-12-19 08:59:20 51°23.288 2°50.282 16.4 309 7.2 102370 80
2008-12-19 08:59:25 51°23.304 2°50.281 15.5 21 7.2 102350 81
2008-12-19 08:59:30 51°23.321 2°50.283 12.8 281 7.2 102350 81
2008-12-19 08:59:34 51°23.334 2°50.283 13.1 22 7.2 102350 82
2008-12-19 08:59:40 51°23.354 2°50.283 16.1 309 7.2 102350 82
2008-12-19 08:59:45 51°23.37 2°50.283 16.7 20 7.2 102340 81
2008-12-19 08:59:50 51°23.387 2°50.283 15.8 308 7.2 102340 81
2008-12-19 08:59:55 51°23.404 2°50.284 17.3 21 7.2 102350 81
2008-12-19 09:00:00 51°23.42 2°50.284 13.4 307 7.2 102350 81
2008-12-19 09:00:05 51°23.437 2°50.285 15.7 24 7.2 102350 81
2008-12-19 09:00:10 51°23.454 2°50.284 13.8 306 7.2 102350 81
2008-12-19 09:00:15 51°23.47 2°50.285 15.4 22 7.2 102340 80
2008-12-19 09:00:20 51°23.487 2°50.284 14.6 306 7.2 102340 80
2008-12-19 09:00:25 51°23.504 2°50.285 15.5 23 7.2 102350 80
2008-12-19 09:00:29 51°23.517 2°50.284 16.9 307 7.2 102350 80
2008-12-19 09:00:35 51°23.538 2°50.285 15 27 7.2 102340 80
2008-12-19 09:00:40 51°23.554 2°50.287 12.9 305 7.2 102340 80
2008-12-19 09:00:45 51°23.571 2°50.287 13.5 26 7.2 102350 80
2008-12-19 09:00:50 51°23.587 2°50.286 16.2 308 7.2 102350 80
2008-12-19 09:00:55 51°23.603 2°50.288 13.7 26 7.2 102360 80
2008-12-19 09:01:00 51°23.62 2°50.287 14.5 302 7.2 102360 80
2008-12-19 09:01:05 51°23.637 2°50.288 14.7 22 7.2 102340 80
2008-12-19 09:01:10 51°23.653 2°50.288 14 305 7.2 102340 80
2008-12-19 09:01:15 51°23.67 2°50.289 16.5 24 7.2 102340 80
2008-12-19 09:01:20 51°23.687 2°50.288 13.8 309 7.2 102340 80
2008-12-19 09:01:25 51°23.704 2°50.289 16.3 22 7.2 102350 80
2008-12-19 09:01:30 51°23.72 2°50.288 13.6 281 7.2 102350 80
2008-12-19 09:01:34 51°23.733 2°50.29 17.3 23 7.2 102350 80
2008-12-19 09:01:40 51°23.753 2°50.288 14.8 306 7.2 102350 80
2008-12-19 09:01:45 51°23.77 2°50.29 13.9 26 7.2 102350 80
2008-12-19 09:01:50 51°23.787 2°50.288 11.7 304 7.2 102350 80
2008-12-19 09:01:54 51°23.8 2°50.289 16.8 23 7.2 102350 80
2008-12-19 09:02:00 51°23.82 2°50.289 14.1 305 7.2 102350 80
2008-12-19 09:02:05 51°23.836 2°50.29 12.9 25 7.2 102340 80
2008-12-19 09:02:10 51°23.853 2°50.289 13.5 306 7.2 102340 80
2008-12-19 09:02:15 51°23.869 2°50.289 12.1 26 7.2 102340 79
2008-12-19 09:02:20 51°23.886 2°50.29 15.7 307 7.2 102340 79
2008-12-19 09:02:25 51°23.903 2°50.289 15.7 23 7.2 102350 79
2008-12-19 09:02:30 51°23.919 2°50.289 16 283 7.2 102350 79
2008-12-19 09:02:35 51°23.936 2°50.289 16.1 21 7.2 102340 80
2008-12-19 09:02:40 51°23.953 2°50.289 13 310 7.2 102340 80
2008-12-19 09:02:45 51°23.97 2°50.289 16.1 21 7.2 102350 80
2008-12-19 09:02:49 51°23.984 2°50.288 15.3 309 7.2 102350 80
2008-12-19 09:02:55 51°24.004 2°50.289 15.2 22 7.2 102360 79
2008-12-19 09:03:00 51°24.021 2°50.289 17.4 308 7.2 102360 79
2008-12-19 09:03:05 51°24.038 2°50.288 16.2 23 7.2 102350 81
2008-12-19 09:03:10 51°24.055 2°50.29 13.8 304 7.2 102350 81
2008-12-19 09:03:15 51°24.071 2°50.289 12.8 23 7.2 102350 79
2008-12-19 09:03:20 51°24.087 2°50.291 14.9 303 7.2 102350 79
2008-12-19 09:03:25 51°24.104 2°50.289 13.3 26 7.2 102360 80
2008-12-19 09:03:30 51°24.12 2°50.292 16.6 302 7.2 102360 80
2008-12-19 09:03:34 51°24.133 2°50.291 12.5 26 7.2 102340 80
2008-12-19 09:03:40 51°24.152 2°50.294 16.3 307 7.2 102340 80
2008-12-19 09:03:45 51°24.168 2°50.292 12.3 26 7.2 102360 80
2008-12-19 09:03:50 51°24.185 2°50.293 15.7 305 7.2 102360 80
2008-12-19 09:03:55 51°24.201 2°50.292 11.4 25 7.2 102360 80
2008-12-19 09:04:00 51°24.218 2°50.293 13.5 308 7.2 102360 80
2008-12-19 09:04:05 51°24.234 2°50.292 16 22 7.2 102360 80
2008-12-19 09:04:09 51°24.248 2°50.293 14.2 309 7.2 102360 80
2008-12-19 09:04:14 51°24.264 2°50.292 13.2 23 7.2 102360 80
2008-12-19 09:04:20 51°24.284 2°50.294 17.1 307 7.2 102360 80
2008-12-19 09:04:25 51°24.301 2°50.292 16.2 22 7.2 102360 81
2008-12-19 09:04:29 51°24.314 2°50.293 14 286 7.2 102360 81
2008-12-19 09:04:35 51°24.334 2°50.292 15.9 23 7.2 102360 81
2008-12-19 09:04:40 51°24.351 2°50.292 14.2 306 7.2 102360 81
2008-12-19 09:04:45 51°24.368 2°50.293 13.2 22 7.2 102350 81
2008-12-19 09:04:50 51°24.385 2°50.292 14.8 304 7.2 102350 81
2008-12-19 09:04:55 51°24.402 2°50.292 14.2 22 7.2 102350 81
2008-12-19 09:05:00 51°24.418 2°50.293 17.6 305 7.2 102350 81
2008-12-19 09:05:05 51°24.435 2°50.293 14.4 22 7.2 102350 81
2008-12-19 09:05:09 51°24.448 2°50.293 16.3 305 7.2 102350 81
2008-12-19 09:05:15 51°24.468 2°50.293 16.1 23 7.2 102340 80
2008-12-19 09:05:20 51°24.484 2°50.294 15.7 302 7.2 102340 80
2008-12-19 09:05:25 51°24.501 2°50.293 13.5 24 7.2 102350 79
2008-12-19 09:05:30 51°24.518 2°50.293 15.5 308 7.2 102350 79
2008-12-19 09:05:34 51°24.531 2°50.295 17 22 7.2 102370 81
2008-12-19 09:05:40 51°24.551 2°50.294 13.8 303 7.2 102370 81
2008-12-19 09:05:45 51°24.567 2°50.294 16.8 21 7.2 102360 80
2008-12-19 09:05:50 51°24.584 2°50.294 15.3 306 7.2 102360 80
2008-12-19 09:05:54 51°24.597 2°50.293 14.6 20 7.2 102370 81
2008-12-19 09:06:00 51°24.617 2°50.294 18.5 305 7.2 102370 81
2008-12-19 09:06:05 51°24.634 2°50.294 15.5 21 7.2 102350 80
2008-12-19 09:06:10 51°24.65 2°50.294 13.7 305 7.2 102350 80
2008-12-19 09:06:14 51°24.663 2°50.294 13 23 7.2 102360 80
2008-12-19 09:06:20 51°24.683 2°50.294 15.9 308 7.2 102360 80
2008-12-19 09:06:25 51°24.7 2°50.294 16.5 24 7.2 102340 79
2008-12-19 09:06:30 51°24.716 2°50.293 16.5 279 7.2 102340 79
2008-12-19 09:06:35 51°24.733 2°50.294 16.7 25 7.2 102350 79
2008-12-19 09:06:40 51°24.75 2°50.293 13.2 308 7.2 102350 79
2008-12-19 09:06:45 51°24.767 2°50.294 14.9 24 7.2 102360 79
2008-12-19 09:06:50 51°24.784 2°50.293 16.5 307 7.2 102360 79
2008-12-19 09:06:55 51°24.8 2°50.293 16.8 22 7.2 102350 80
2008-12-19 09:07:00 51°24.817 2°50.294 17.9 305 7.2 102350 80
2008-12-19 09:07:05 51°24.834 2°50.294 14.8 24 7.2 102360 80
2008-12-19 09:07:10 51°24.85 2°50.292 16.8 305 7.2 102360 80
2008-12-19 09:07:15 51°24.867 2°50.293 16.2 21 7.2 102350 80
2008-12-19 09:07:20 51°24.883 2°50.293 16.1 304 7.2 102350 80
2008-12-19 09:07:25 51°24.899 2°50.293 14.8 27 7.2 102340 80
2008-12-19 09:07:30 51°24.915 2°50.294 18 306 7.2 102340 80
2008-12-19 09:07:35 51°24.931 2°50.294 14.5 22 7.2 102360 80
2008-12-19 09:07:40 51°24.947 2°50.294 16.1 305 7.2 102360 80
2008-12-19 09:07:45 51°24.963 2°50.294 14.6 26 7.2 102360 80
2008-12-19 09:07:50 51°24.98 2°50.295 17.9 305 7.2 102360 80
2008-12-19 09:07:55 51°24.996 2°50.295 17.5 26 7.2 102360 79
2008-12-19 09:08:00 51°25.013 2°50.295 18.5 306 7.2 102360 79
2008-12-19 09:08:05 51°25.03 2°50.294 14.6 24 7.2 102350 80
2008-12-19 09:08:10 51°25.047 2°50.294 16.5 307 7.2 102350 80
2008-12-19 09:08:14 51°25.061 2°50.294 15.7 24 7.2 102340 79
2008-12-19 09:08:20 51°25.081 2°50.294 17.2 307 7.2 102340 79
2008-12-19 09:08:25 51°25.098 2°50.291 18.2 23 7.2 102350 80
2008-12-19 09:08:30 51°25.115 2°50.295 14.9 281 7.2 102350 80
2008-12-19 09:08:34 51°25.129 2°50.293 14.9 23 7.2 102350 80
2008-12-19 09:08:40 51°25.148 2°50.294 18 305 7.2 102350 80
2008-12-19 09:08:45 51°25.165 2°50.293 13.9 26 7.2 102370 79
2008-12-19 09:08:50 51°25.181 2°50.293 14.8 307 7.2 102370 79
2008-12-19 09:08:55 51°25.198 2°50.293 16.7 20 7.2 102350 79
2008-12-19 09:09:00 51°25.215 2°50.294 15.5 305 7.2 102350 79
2008-12-19 09:09:05 51°25.232 2°50.291 14.1 26 7.2 102370 79
2008-12-19 09:09:10 51°25.248 2°50.292 17.8 307 7.2 102370 79
2008-12-19 09:09:15 51°25.266 2°50.292 16.6 22 7.2 102370 78
2008-12-19 09:09:20 51°25.282 2°50.291 14 307 7.2 102370 78
2008-12-19 09:09:25 51°25.299 2°50.291 13 24 7.2 102370 79
2008-12-19 09:09:30 51°25.317 2°50.289 13.3 308 7.2 102370 79
2008-12-19 09:09:35 51°25.334 2°50.29 13.4 22 7.2 102360 78
2008-12-19 09:09:40 51°25.351 2°50.289 13.9 307 7.2 102360 78
2008-12-19 09:09:45 51°25.368 2°50.29 18.1 23 7.2 102370 79
2008-12-19 09:09:50 51°25.386 2°50.29 17.5 306 7.2 102370 79
2008-12-19 09:09:55 51°25.403 2°50.292 14.2 19 7.2 102370 79
2008-12-19 09:10:00 51°25.42 2°50.289 13 306 7.2 102370 79
2008-12-19 09:10:05 51°25.437 2°50.292 16.7 22 7.2 102380 79
2008-12-19 09:10:10 51°25.454 2°50.29 16 308 7.2 102380 79
2008-12-19 09:10:15 51°25.472 2°50.292 16.7 25 7.2 102360 80
2008-12-19 09:10:20 51°25.488 2°50.29 17 305 7.2 102360 80
2008-12-19 09:10:25 51°25.506 2°50.291 18.6 25 7.2 102380 79
2008-12-19 09:10:30 51°25.522 2°50.291 17.3 284 7.2 102380 79
2008-12-19 09:10:34 51°25.536 2°50.292 14.9 25 7.2 102360 79
2008-12-19 09:10:40 51°25.557 2°50.291 17.5 305 7.2 102360 79
2008-12-19 09:10:45 51°25.574 2°50.292 17.7 24 7.2 102390 79
2008-12-19 09:10:50 51°25.591 2°50.292 15.9 307 7.2 102390 79
2008-12-19 09:10:54 51°25.605 2°50.292 16.2 26 7.2 102360 79
2008-12-19 09:11:00 51°25.625 2°50.293 12.8 308 7.2 102360 79
2008-12-19 09:11:05 51°25.642 2°50.294 12.9 24 7.2 102360 79
2008-12-19 09:11:10 51°25.659 2°50.294 15.1 309 7.2 102360 79
2008-12-19 09:11:15 51°25.676 2°50.293 13 22 7.2 102360 79
2008-12-19 09:11:20 51°25.693 2°50.295 13.2 307 7.2 102360 79
2008-12-19 09:11:25 51°25.71 2°50.294 15.6 22 7.2 102370 80
2008-12-19 09:11:30 51°25.727 2°50.296 13.5 305 7.2 102370 80
2008-12-19 09:11:35 51°25.744 2°50.293 12.5 22 7.2 102380 79
2008-12-19 09:11:40 51°25.761 2°50.295 14.7 308 7.2 102380 79
2008-12-19 09:11:45 51°25.778 2°50.293 13.1 20 7.2 102370 80
2008-12-19 09:11:49 51°25.791 2°50.294 12.8 308 7.2 102370 80
2008-12-19 09:11:55 51°25.812 2°50.293 15.3 24 7.2 102370 80
2008-12-19 09:12:00 51°25.829 2°50.294 15.6 302 7.2 102370 80
2008-12-19 09:12:05 51°25.846 2°50.294 17.6 23 7.2 102380 81
2008-12-19 09:12:10 51°25.863 2°50.295 13.2 306 7.2 102380 81
2008-12-19 09:12:15 51°25.88 2°50.295 15.2 20 7.2 102380 80
2008-12-19 09:12:20 51°25.897 2°50.294 16.1 306 7.2 102380 80
2008-12-19 09:12:25 51°25.913 2°50.295 15.6 21 7.2 102370 81
2008-12-19 09:12:30 51°25.93 2°50.296 15.5 284 7.2 102370 81
2008-12-19 09:12:35 51°25.947 2°50.295 13.1 24 7.2 102360 79
2008-12-19 09:12:40 51°25.964 2°50.295 16 307 7.2 102360 79
2008-12-19 09:12:45 51°25.981 2°50.296 12.9 26 7.2 102370 81
2008-12-19 09:12:50 51°25.998 2°50.294 15.9 305 7.2 102370 81
2008-12-19 09:12:55 51°26.015 2°50.295 16.2 22 7.2 102380 80
2008-12-19 09:13:00 51°26.032 2°50.294 11.8 310 7.2 102380 80
2008-12-19 09:13:05 51°26.049 2°50.294 14.2 23 7.2 102380 81
2008-12-19 09:13:10 51°26.066 2°50.295 15.6 305 7.2 102380 81
2008-12-19 09:13:15 51°26.083 2°50.294 12.4 27 7.2 102390 80
2008-12-19 09:13:20 51°26.1 2°50.294 13.2 305 7.2 102390 80
2008-12-19 09:13:25 51°26.117 2°50.293 18.4 25 7.2 102370 81
2008-12-19 09:13:30 51°26.134 2°50.294 14.4 307 7.2 102370 81
2008-12-19 09:13:35 51°26.151 2°50.294 13 25 7.2 102390 81
2008-12-19 09:13:40 51°26.169 2°50.293 13.6 307 7.2 102390 81
2008-12-19 09:13:45 51°26.185 2°50.293 16.3 26 7.2 102380 81
2008-12-19 09:13:49 51°26.199 2°50.293 17.3 305 7.2 102380 81
2008-12-19 09:13:55 51°26.219 2°50.294 15.1 23 7.2 102350 82
2008-12-19 09:14:00 51°26.236 2°50.294 18.7 307 7.2 102350 82
2008-12-19 09:14:05 51°26.253 2°50.295 15.6 21 7.2 102370 82
2008-12-19 09:14:10 51°26.27 2°50.295 15.8 307 7.2 102370 82
2008-12-19 09:14:15 51°26.286 2°50.295 16.6 24 7.2 102360 82
2008-12-19 09:14:20 51°26.303 2°50.295 13.7 308 7.2 102360 82
2008-12-19 09:14:25 51°26.32 2°50.293 14.2 22 7.2 102370 81
2008-12-19 09:14:30 51°26.336 2°50.294 15.4 281 7.2 102370 81
2008-12-19 09:14:35 51°26.353 2°50.293 17.9 25 7.2 102370 81
2008-12-19 09:14:40 51°26.37 2°50.295 13.7 306 7.2 102370 81
2008-12-19 09:14:45 51°26.386 2°50.301 13.2 23 7.2 102370 81
2008-12-19 09:14:50 51°26.4 2°50.311 15.5 309 7.2 102370 81
2008-12-19 09:14:55 51°26.413 2°50.324 13.7 20 7.2 102370 80
2008-12-19 09:15:00 51°26.425 2°50.34 12.2 303 7.2 102370 80
2008-12-19 09:15:05 51°26.434 2°50.36 11.6 258 7.2 102370 80
2008-12-19 09:15:10 51°26.442 2°50.38 9.8 309 7.2 102370 80
2008-12-19 09:15:14 51°26.447 2°50.398 10.3 258 7.2 102370 81
2008-12-19 09:15:20 51°26.454 2°50.425 7.8 310 7.2 102370 81
2008-12-19 09:15:25 51°26.462 2°50.447 8.9 255 7.2 102400 81
2008-12-19 09:15:30 51°26.47 2°50.469 7.2 305 7.2 102400 81
2008-12-19 09:15:35 51°26.477 2°50.493 8.2 253 7.2 102420 81
2008-12-19 09:15:40 51°26.486 2°50.513 7.9 302 7.2 102420 81
2008-12-19 09:15:45 51°26.493 2°50.537 8.2 248 7.2 102430 82
2008-12-19 09:15:50 51°26.503 2°50.56 9.4 304 7.2 102430 82
2008-12-19 09:15:55 51°26.511 2°50.582 8.3 250 7.2 102440 83
2008-12-19 09:16:00 51°26.519 2°50.605 8.6 302 7.2 102440 83
2008-12-19 09:16:05 51°26.529 2°50.627 7.8 250 7.2 102430 82
2008-12-19 09:16:10 51°26.537 2°50.649 7.2 309 7.2 102430 82
2008-12-19 09:16:15 51°26.545 2°50.672 10.4 252 7.2 102420 82
2008-12-19 09:16:20 51°26.556 2°50.693 9 301 7.2 102420 82
2008-12-19 09:16:25 51°26.564 2°50.717 11.6 251 7.2 102410 83
2008-12-19 09:16:29 51°26.573 2°50.732 8.8 277 7.2 102410 83
2008-12-19 09:16:35 51°26.583 2°50.76 10.8 250 7.2 102430 82
2008-12-19 09:16:40 51°26.593 2°50.781 9.2 303 7.2 102430 82
2008-12-19 09:16:45 51°26.602 2°50.804 10.5 246 7.2 102430 82
2008-12-19 09:16:49 51°26.609 2°50.821 10.4 304 7.2 102430 82
2008-12-19 09:16:55 51°26.62 2°50.849 10.2 26 7.2 102430 82
2008-12-19 09:17:00 51°26.629 2°50.871 8.9 308 7.2 102430 82
2008-12-19 09:17:05 51°26.637 2°50.894 12.5 252 7.2 102420 82
2008-12-19 09:17:10 51°26.646 2°50.916 9.4 306 7.2 102420 82
2008-12-19 09:17:15 51°26.654 2°50.94 9.4 20 7.2 102420 83
2008-12-19 09:17:20 51°26.663 2°50.962 10.9 306 7.2 102420 83
2008-12-19 09:17:25 51°26.671 2°50.986 7.7 251 7.2 102420 82
2008-12-19 09:17:30 51°26.679 2°51.009 9.2 303 7.2 102420 82
2008-12-19 09:17:34 51°26.686 2°51.027 10 250 7.2 102420 83
2008-12-19 09:17:40 51°26.695 2°51.055 9.4 304 7.2 102420 83
2008-12-19 09:17:45 51°26.702 2°51.08 10.5 249 7.2 102410 81
2008-12-19 09:17:50 51°26.712 2°51.102 11.2 304 7.2 102410 81
2008-12-19 09:17:55 51°26.72 2°51.124 7.9 250 7.2 102420 82
2008-12-19 09:18:00 51°26.727 2°51.148 11.3 310 7.2 102420 82
2008-12-19 09:18:05 51°26.737 2°51.17 9.1 250 7.3 102410 83
2008-12-19 09:18:09 51°26.743 2°51.189 9.5 310 7.3 102410 83
2008-12-19 09:18:14 51°26.75 2°51.212 7.8 251 7.2 102410 83
2008-12-19 09:18:20 51°26.76 2°51.24 11.3 304 7.2 102410 83
2008-12-19 09:18:25 51°26.769 2°51.263 8.6 256 7.2 102410 83
2008-12-19 09:18:29 51°26.774 2°51.282 10.4 280 7.2 102410 83
2008-12-19 09:18:34 51°26.783 2°51.305 12.2 257 7.2 102410 83
2008-12-19 09:18:40 51°26.792 2°51.333 9.4 306 7.2 102410 83
2008-12-19 09:18:45 51°26.8 2°51.357 9.9 249 7.2 102430 82
2008-12-19 09:18:49 51°26.806 2°51.375 8.4 309 7.2 102430 82
2008-12-19 09:18:54 51°26.814 2°51.399 11.5 255 7.2 102420 82
2008-12-19 09:19:00 51°26.824 2°51.427 9.5 306 7.2 102420 82
2008-12-19 09:19:05 51°26.831 2°51.451 10.5 256 7.2 102420 82
2008-12-19 09:19:09 51°26.838 2°51.469 11.1 306 7.2 102420 82
2008-12-19 09:19:14 51°26.845 2°51.494 11 256 7.2 102420 82
2008-12-19 09:19:20 51°26.856 2°51.519 11.2 308 7.2 102420 82
2008-12-19 09:19:25 51°26.862 2°51.545 9.8 254 7.2 102420 82
2008-12-19 09:19:29 51°26.87 2°51.564 10.3 301 7.2 102420 82
2008-12-19 09:19:34 51°26.878 2°51.586 10.2 254 7.2 102420 82
2008-12-19 09:19:40 51°26.887 2°51.614 10 304 7.2 102420 82
2008-12-19 09:19:45 51°26.895 2°51.638 12.1 256 7.2 102430 80
2008-12-19 09:19:49 51°26.902 2°51.656 10.8 303 7.2 102430 80
2008-12-19 09:19:54 51°26.909 2°51.68 10.1 253 7.2 102400 82
2008-12-19 09:20:00 51°26.919 2°51.708 10.3 306 7.2 102400 82
2008-12-19 09:20:05 51°26.926 2°51.731 11.7 253 7.2 102420 82
2008-12-19 09:20:09 51°26.933 2°51.75 10.5 304 7.2 102420 82
2008-12-19 09:20:14 51°26.941 2°51.774 9.4 257 7.2 102420 81
2008-12-19 09:20:20 51°26.95 2°51.802 11.5 307 7.2 102420 81
2008-12-19 09:20:25 51°26.959 2°51.825 7.3 250 7.2 102410 82
2008-12-19 09:20:29 51°26.966 2°51.843 8.6 283 7.2 102410 82
2008-12-19 09:20:34 51°26.973 2°51.867 9.6 254 7.2 102420 82
2008-12-19 09:20:40 51°26.984 2°51.894 8.7 307 7.2 102420 82
2008-12-19 09:20:45 51°26.991 2°51.918 9.9 254 7.2 102430 82
2008-12-19 09:20:49 51°26.997 2°51.936 11.8 302 7.2 102430 82
2008-12-19 09:20:54 51°27.007 2°51.958 10.6 253 7.2 102430 81
2008-12-19 09:21:00 51°27.016 2°51.986 9.8 308 7.2 102430 81
2008-12-19 09:21:05 51°27.024 2°52.008 9.3 252 7.2 102420 82
2008-12-19 09:21:09 51°27.03 2°52.028 8.2 304 7.2 102420 82
2008-12-19 09:21:14 51°27.039 2°52.049 9.9 256 7.2 102410 81
2008-12-19 09:21:20 51°27.048 2°52.078 10.3 302 7.2 102410 81